CUAVA-1 (49275 NORAD) Tracking and Keplerian Element Data

This shows tracking and keplerian element data for the satellite.

Feedback or suggestion? Click here.




ElementValue
Catalog49275
NameCUAVA-1
Epoch Orbit139
Epoch Day288.11403162
Epoch Year2021
RAAN109.6564
Inclination51.6418
Eccentricity0.0006105
Argument of Perigee135.917
Mean Anonmoly321.2972
Mean Motion15.50138004
Decay Rate0.00020411
L11 49275U 98067SU 21288.11403162 .00020411 00000-0 36275-3 0 9990
L22 49275 51.6418 109.6564 0006105 135.9170 321.2972 15.50138004 1399

Live tracking and technical data element details for CUAVA-1 (NORAD 49275). CUAVA-1 can be tracked NOW for your location showing map with azimuth and elevation plus other details from your city location.

Track the satellite on the map from your city or location and see movement details for azimuth, elevation, latitude, longitude, range, height, and movement on the map or in text.







IsCatalogInMostPopularTable: catalog: 49275, numindb: 4
Update: records affected: 1



GetName: 49275 CUAVA-1

Hit Count: updated at: Tue, 19 Oct 2021 09:30:58 GMT